{"data":{"norad_id":69383,"intl_designator":"2026-124B","name":"QIANFAN-166","alt_names":[],"object_type":"PAYLOAD","status":"ACTIVE","operator":null,"country":"PRC","launch_date":"2026-06-04","launch_site_code":"TAISC","launch_vehicle":null,"mission":null,"orbit_class":"UNKNOWN","rcs_meters":null,"size_class":null,"mass_kg":null,"dimensions":null,"purposes":[],"wikipedia_slug":null,"has_3d_model":false,"image_url":null,"decayed_at":null,"tle_current":{"epoch":"2026-09-20T03:52:02.641152Z","epoch_age_seconds":64375,"freshness":"FRESH","line1":"1 69383U 26124B   26263.16114168  .00000114  00000+0  15810-3 0  9994","line2":"2 69383  89.0089 352.0679 0001831 104.7308 255.4046 13.51022822 14864","mean_motion":13.51022822,"eccentricity":0.0001831,"inclination_deg":89.0089,"raan_deg":352.0679,"arg_perigee_deg":104.7308,"mean_anomaly_deg":255.4046,"bstar":0.0001581,"rev_number":1486,"period_min":106.58591228446,"perigee_km":1067.1342442911,"apogee_km":1069.8612019267,"semimajor_km":7446.6347231089,"source":"CELESTRAK","updated_at":"2026-09-20T09:00:24.857920Z"}}}